[[{"header":{"parameterUnit":"m.s-1","parameterCategory":1,"la1":30.2991,"la2":30.254,"lo1":-89.0895,"lo2":-89.0444,"dy":0.0017,"dx":0.0017,"nx":28,"ny":28,"refTime":"2023-03-20T15:00:00:Z","depth":0,"parameterNumber":2,"parameterNumberName":"U-component_of_WINDS"},"data":[0,0,0,0,0,0,0,0,0,0,0,0,0,0,0,0,0,0,0,0,0,0,0,0,0,0,0,0,0,0,0,0,0,0,0,0,0,0,0,0,0,0,0,0,0,0,0,0,0,0,0,0,0,0,0,0,0,0,-3.6322,-3.6322,0,-3.6332,-3.6332,-3.6332,-3.6254,-3.6252,-3.6249,-3.6247,-3.6257,-3.6259,-3.6262,0,0,0,0,0,0,0,0,0,0,0,0,0,-3.6236,-3.6238,-3.6322,-3.6322,-3.6322,-3.6332,-3.6332,-3.6332,-3.6254,-3.6251,-3.6249,-3.6246,-3.6256,-3.6259,-3.6262,0,0,0,0,0,0,0,0,0,0,0,0,0,-3.6262,-3.6238,-3.6322,-3.6285,-3.6281,-3.6332,-3.6332,-3.6332,-3.6255,-3.6251,-3.6248,-3.6245,-3.6255,-3.6259,-3.6262,-3.6349,0,0,-3.6273,-3.6274,0,0,0,0,0,0,0,0,-3.6261,-3.6265,-3.629,-3.6287,-3.6284,-3.6288,-3.6305,-3.6338,-3.6255,-3.6265,-3.6247,-3.6243,-3.627,-3.6272,-3.6281,-3.6349,-3.635,-3.6273,-3.6275,-3.6277,-3.6278,0,0,0,0,0,0,0,-3.6259,-3.6265,-3.6326,-3.629,-3.6287,-3.6267,-3.6267,-3.6311,-3.6286,-3.6264,-3.6258,-3.626,-3.6268,-3.6278,-3.6281,-3.635,-3.6273,-3.6276,-3.6278,-3.6279,-3.6489,-3.6493,0,0,0,0,0,0,-3.6262,-3.6264,-3.6325,-3.6326,-3.6264,-3.6271,-3.6271,-3.629,-3.6285,-3.6281,-3.6263,-3.6257,-3.6274,-3.6277,-3.6281,-3.6382,-3.6277,-3.628,-3.6282,-3.6486,-3.649,-3.6494,0,0,0,0,0,0,-3.6261,-3.6269,-3.6325,-3.6293,-3.6299,-3.6276,-3.6298,-3.6292,-3.6302,-3.6284,-3.628,-3.6278,-3.6271,-3.6276,-3.6332,-3.6381,-3.6281,-3.6284,-3.6482,-3.6487,-3.6492,-3.6584,0,0,0,0,0,0,-3.6259,-3.6268,-3.6301,-3.6295,-3.6301,-3.6377,-3.6301,-3.6294,-3.6308,-3.63,-3.6297,-3.6294,-3.6269,-3.6328,-3.6336,-3.6384,-3.6287,-3.6477,-3.6484,-3.649,-3.6577,-3.6592,-3.6605,0,0,0,0,0,-3.6256,-3.6327,-3.6303,-3.6311,-3.6341,-3.638,-3.6383,-3.6354,-3.6312,-3.6345,-3.6334,-3.6294,-3.6374,-3.6334,-3.6343,-3.6392,-3.6474,-3.6482,-3.649,-3.6571,-3.6589,-3.6605,0,0,0,0,0,0,-3.634,-3.6325,-3.6299,-3.637,-3.6377,-3.6367,-3.6407,-3.6374,-3.6393,-3.6384,-3.6346,-3.6346,-3.6409,-3.6406,-3.6362,-3.6476,-3.6417,-3.6427,-3.6476,-3.6493,-3.6507,-3.6506,-3.629,0,0,0,0,0,-3.6366,-3.6399,-3.6384,-3.6449,-3.6453,-3.643,-3.6445,-3.6422,-3.6427,-3.643,-3.6422,-3.6429,-3.6456,-3.6474,-3.6498,-3.6576,-3.6574,-3.6615,-3.6629,-3.6641,-3.665,-3.6691,-3.6708,-3.652,-3.652,-3.652,0,0,-3.6422,-3.6418,-3.6441,-3.6465,-3.6468,-3.6502,-3.6433,-3.6472,-3.6497,-3.6435,-3.6488,-3.6484,-3.6488,-3.6556,-3.6586,-3.6556,-3.6701,-3.6651,-3.666,-3.6663,-3.6701,-3.6719,-3.6734,-3.6525,-3.6524,-3.6523,0,0,-3.6541,-3.6541,-3.6595,-3.6599,-3.6603,-3.6587,-3.66,-3.6595,-3.6589,-3.6642,-3.6596,-3.6626,-3.6673,-3.6678,-3.6687,-3.6808,-3.6772,-3.6817,-3.6891,-3.6932,-3.6946,-3.6959,-3.7003,-3.7019,-3.6826,-3.6826,-3.6827,0,-3.6609,-3.6659,-3.6626,-3.6669,-3.6681,-3.6627,-3.6681,-3.6686,-3.6698,-3.6708,-3.6674,-3.6732,-3.6731,-3.68,-3.6829,-3.6838,-3.6852,-3.6817,-3.6947,-3.696,-3.6971,-3.7012,-3.7028,-3.6832,-3.6831,-3.6831,-3.683,0,-3.6743,-3.6779,-3.6821,-3.6835,-3.6852,-3.69,-3.6874,-3.6895,-3.687,-3.6857,-3.6912,-3.6909,-3.6931,-3.6946,-3.6922,-3.7011,-3.6992,-3.6954,-3.6893,-3.6995,-3.7033,-3.7048,-3.684,-3.6838,-3.6836,-3.6835,0,0,-3.6915,-3.691,-3.6926,-3.6931,-3.6932,-3.6959,-3.7005,-3.7027,-3.7045,-3.7056,-3.7093,-3.7134,-3.7098,-3.7108,-3.7084,-3.712,-3.7216,-3.7077,-3.7076,-3.7103,-3.7314,-3.7343,-3.7362,-3.7192,-3.7195,-3.7198,-3.7314,0,-3.7031,-3.7108,-3.708,-3.7159,-3.7192,-3.7141,-3.7181,-3.7186,-3.7176,-3.7201,-3.719,-3.7219,-3.717,-3.7176,-3.7209,-3.7198,-3.7258,-3.7189,-3.7227,-3.7228,-3.7227,-3.7382,-3.7412,-3.7522,-3.7328,-3.7331,-3.7333,0,-3.7176,-3.7193,-3.7276,-3.7271,-3.7284,-3.732,-3.7338,-3.7363,-3.7368,-3.7358,-3.737,-3.7338,-3.7382,-3.7323,-3.7383,-3.7336,-3.735,-3.7347,-3.7351,-3.7353,-3.7287,-3.7388,-3.7556,-3.7573,-3.7355,-3.7354,-3.7352,0,-3.7293,-3.7336,-3.7391,-3.7397,-3.7394,-3.742,-3.742,-3.7422,-3.7437,-3.7452,-3.7461,-3.7482,-3.7493,-3.751,-3.7485,-3.7444,-3.7549,-3.7487,-3.7541,-3.7542,-3.7566,-3.7565,-3.7739,-3.7575,-3.7575,-3.7575,-3.7574,0,-3.7425,-3.7478,-3.7443,-3.7477,-3.7535,-3.7502,-3.7559,-3.7553,-3.7555,-3.7587,-3.7545,-3.7575,-3.754,-3.7568,-3.7548,-3.7601,-3.7606,-3.7599,-3.7594,-3.7603,-3.7604,-3.7611,-3.7603,-3.7579,-3.7578,-3.7577,-3.7576,0,-3.7565,-3.7544,-3.7601,-3.7593,-3.7593,-3.7635,-3.7628,-3.7659,-3.7646,-3.7687,-3.7694,-3.7674,-3.7704,-3.768,-3.771,-3.7696,-3.7766,-3.775,-3.7765,-3.776,-3.7816,-3.7811,-3.8001,-3.8024,-3.7846,-3.7848,-3.7849,0,-3.7651,-3.769,-3.7687,-3.7705,-3.7708,-3.7738,-3.7753,-3.7722,-3.7739,-3.7748,-3.7778,-3.7804,-3.7824,-3.7874,-3.7862,-3.7884,-3.7867,-3.7932,-3.787,-3.7879,-3.7868,-3.7866,-3.787,-3.7945,-3.7947,-3.7949,-3.795,0,-3.7805,-3.7793,-3.7817,-3.7837,-3.7856,-3.7871,-3.7881,-3.7899,-3.7867,-3.7889,-3.7919,-3.7935,-3.7965,-3.7991,-3.8009,-3.8009,-3.7975,-3.797,-3.7983,-3.7994,-3.8001,-3.7997,-3.7799,-3.7965,-3.7964,-3.7963,-3.7962,-3.7961,-3.7921,-3.7953,-3.7956,-3.7984,-3.7989,-3.8,-3.8029,-3.8019,-3.8044,-3.8066,-3.8046,-3.8083,-3.8086,-3.8107,-3.8111,-3.8138,-3.8111,-3.8132,-3.8136,-3.8142,-3.815,-3.7997,-3.8142,-3.8141,-3.8141,-3.814,-3.814,0,-3.8072,-3.8072,-3.8098,-3.8114,-3.8136,-3.8102,-3.8113,-3.8133,-3.8166,-3.8172,-3.8192,-3.8227,-3.8253,-3.8243,-3.8265,-3.8289,-3.8274,-3.8296,-3.8294,-3.8295,-3.8173,-3.8158,-3.8308,-3.8308,-3.8308,-3.8308,-3.8308,-3.8308,-3.8154,-3.8207,-3.8196,-3.8251,-3.825,-3.8285,-3.8294,-3.8304,-3.8309,-3.835,-3.8371,-3.8364,-3.8364,-3.8386,-3.8408,-3.8405,-3.8415,-3.8443,-3.8433,-3.832,-3.8303,-3.8287,-3.8274,-3.8445,-3.8446,-3.8553,-3.8554,-3.8555]},{"header":{"parameterUnit":"m.s-1","parameterCategory":1,"la1":30.2991,"la2":30.254,"lo1":-89.0895,"lo2":-89.0444,"dy":0.0017,"dx":0.0017,"nx":28,"ny":28,"refTime":"2023-03-20T15:00:00:Z","depth":0,"parameterNumber":3,"parameterNumberName":"V-component_of_WINDS"},"data":[0,0,0,0,0,0,0,0,0,0,0,0,0,0,0,0,0,0,0,0,0,0,0,0,0,0,0,0,0,0,0,0,0,0,0,0,0,0,0,0,0,0,0,0,0,0,0,0,0,0,0,0,0,0,0,0,0,0,-3.557,-3.5571,0,-3.5593,-3.5593,-3.5593,-3.5547,-3.5546,-3.5544,-3.5543,-3.5564,-3.5566,-3.5568,0,0,0,0,0,0,0,0,0,0,0,0,0,-3.5486,-3.5487,-3.557,-3.5571,-3.5571,-3.5593,-3.5593,-3.5593,-3.5548,-3.5546,-3.5544,-3.5542,-3.5564,-3.5566,-3.5568,0,0,0,0,0,0,0,0,0,0,0,0,0,-3.5517,-3.5488,-3.557,-3.5551,-3.5549,-3.5593,-3.5593,-3.5594,-3.5548,-3.5546,-3.5544,-3.5541,-3.5563,-3.5566,-3.5569,-3.5632,0,0,-3.5578,-3.5579,0,0,0,0,0,0,0,0,-3.5515,-3.552,-3.5553,-3.5552,-3.5551,-3.5565,-3.5571,-3.5606,-3.5549,-3.5548,-3.5543,-3.554,-3.5566,-3.5569,-3.5578,-3.5633,-3.5634,-3.5578,-3.558,-3.5581,-3.5582,0,0,0,0,0,0,0,-3.5513,-3.5519,-3.5579,-3.5554,-3.5552,-3.554,-3.5542,-3.5577,-3.557,-3.5548,-3.5545,-3.5548,-3.5565,-3.5575,-3.5578,-3.5634,-3.5578,-3.5581,-3.5582,-3.5583,-3.5741,-3.5743,0,0,0,0,0,0,-3.5513,-3.5517,-3.5578,-3.558,-3.5527,-3.5544,-3.5546,-3.5563,-3.5569,-3.5568,-3.555,-3.5546,-3.5571,-3.5575,-3.5579,-3.5653,-3.5581,-3.5584,-3.5585,-3.5739,-3.5742,-3.5744,0,0,0,0,0,0,-3.5512,-3.5519,-3.5578,-3.5548,-3.5554,-3.5547,-3.5567,-3.5564,-3.5574,-3.5571,-3.5569,-3.5562,-3.557,-3.5575,-3.5619,-3.5653,-3.5585,-3.5588,-3.5736,-3.574,-3.5743,-3.5802,0,0,0,0,0,0,-3.551,-3.5519,-3.5544,-3.5549,-3.5556,-3.5618,-3.5569,-3.5566,-3.558,-3.5575,-3.5581,-3.558,-3.5568,-3.5615,-3.5622,-3.5656,-3.559,-3.5733,-3.5738,-3.5742,-3.5797,-3.5808,-3.5816,0,0,0,0,0,-3.5507,-3.5559,-3.5545,-3.5553,-3.5587,-3.5621,-3.5625,-3.561,-3.5583,-3.5607,-3.5604,-3.558,-3.5648,-3.562,-3.5627,-3.5663,-3.5731,-3.5736,-3.5742,-3.5793,-3.5806,-3.5816,0,0,0,0,0,0,-3.5558,-3.5559,-3.5544,-3.56,-3.561,-3.5613,-3.5643,-3.5624,-3.5642,-3.5637,-3.5617,-3.5619,-3.5667,-3.5669,-3.5638,-3.5724,-3.5685,-3.5692,-3.5721,-3.5733,-3.5742,-3.5741,-3.5593,0,0,0,0,0,-3.5576,-3.5604,-3.5603,-3.5652,-3.5659,-3.565,-3.5664,-3.5652,-3.5662,-3.5666,-3.5667,-3.5677,-3.5701,-3.5717,-3.5738,-3.5797,-3.5798,-3.5825,-3.5834,-3.5842,-3.5849,-3.588,-3.5892,-3.5762,-3.5762,-3.5762,0,0,-3.5613,-3.5617,-3.5636,-3.5663,-3.567,-3.5699,-3.5654,-3.5687,-3.5708,-3.5671,-3.5713,-3.5714,-3.5724,-3.5776,-3.5799,-3.5779,-3.5885,-3.5849,-3.5855,-3.5858,-3.5887,-3.5899,-3.591,-3.5766,-3.5765,-3.5765,0,0,-3.5695,-3.5701,-3.5743,-3.5751,-3.5762,-3.5756,-3.5766,-3.5771,-3.577,-3.5812,-3.5785,-3.581,-3.5851,-3.5859,-3.5869,-3.5953,-3.5932,-3.5961,-3.6011,-3.6041,-3.6051,-3.606,-3.6091,-3.6102,-3.5967,-3.5967,-3.5967,0,-3.574,-3.5783,-3.5767,-3.5801,-3.5814,-3.5782,-3.5824,-3.5832,-3.5849,-3.5858,-3.5836,-3.5886,-3.5891,-3.5944,-3.5965,-3.5974,-3.5984,-3.596,-3.6051,-3.606,-3.6068,-3.6097,-3.6109,-3.5971,-3.597,-3.597,-3.597,0,-3.5838,-3.5868,-3.59,-3.5918,-3.5934,-3.5972,-3.5961,-3.5978,-3.5965,-3.5961,-3.6003,-3.6008,-3.6029,-3.6041,-3.6027,-3.6092,-3.608,-3.6055,-3.6015,-3.6085,-3.6111,-3.6122,-3.5976,-3.5975,-3.5974,-3.5973,0,0,-3.5954,-3.5962,-3.5975,-3.5982,-3.5992,-3.6015,-3.6051,-3.6072,-3.6088,-3.6101,-3.613,-3.6165,-3.6142,-3.6153,-3.614,-3.6167,-3.6234,-3.6138,-3.6138,-3.6156,-3.6306,-3.6325,-3.6338,-3.6219,-3.6221,-3.6223,-3.6305,0,-3.6036,-3.61,-3.6085,-3.6147,-3.6175,-3.6144,-3.6176,-3.6184,-3.6181,-3.6204,-3.6199,-3.6225,-3.6192,-3.6199,-3.6224,-3.6221,-3.6264,-3.6214,-3.6246,-3.6248,-3.6246,-3.6352,-3.6373,-3.6451,-3.6315,-3.6317,-3.6318,0,-3.6141,-3.6159,-3.6223,-3.6228,-3.6239,-3.6268,-3.6286,-3.6308,-3.6317,-3.6313,-3.6325,-3.6306,-3.6341,-3.6301,-3.6348,-3.6315,-3.6327,-3.6327,-3.633,-3.6333,-3.6288,-3.6359,-3.6475,-3.6487,-3.6335,-3.6333,-3.6332,0,-3.622,-3.626,-3.6304,-3.6311,-3.6318,-3.6338,-3.6342,-3.6349,-3.6362,-3.6378,-3.6387,-3.6406,-3.6417,-3.6432,-3.6419,-3.6391,-3.6469,-3.6427,-3.6466,-3.6467,-3.6485,-3.6484,-3.6606,-3.6492,-3.6492,-3.6491,-3.6491,0,-3.6314,-3.6355,-3.6339,-3.6366,-3.6411,-3.6394,-3.6438,-3.6438,-3.6444,-3.647,-3.6444,-3.6469,-3.645,-3.6473,-3.6463,-3.6504,-3.6509,-3.6506,-3.6503,-3.6509,-3.651,-3.6518,-3.6512,-3.6494,-3.6494,-3.6493,-3.6493,0,-3.6411,-3.6402,-3.6448,-3.645,-3.6451,-3.6484,-3.6486,-3.6511,-3.6505,-3.6538,-3.6545,-3.6537,-3.6562,-3.6551,-3.6577,-3.657,-3.6623,-3.6613,-3.6621,-3.6618,-3.6659,-3.6655,-3.679,-3.6807,-3.6681,-3.6682,-3.6683,0,-3.6472,-3.6503,-3.6508,-3.6524,-3.653,-3.6556,-3.657,-3.6553,-3.6569,-3.6581,-3.6604,-3.6628,-3.6646,-3.6688,-3.6684,-3.6704,-3.6694,-3.6739,-3.6697,-3.6702,-3.6695,-3.6694,-3.6697,-3.6748,-3.675,-3.6751,-3.6752,0,-3.6581,-3.6575,-3.6597,-3.6617,-3.6634,-3.6649,-3.6662,-3.6676,-3.666,-3.6678,-3.6705,-3.6719,-3.6746,-3.6769,-3.6787,-3.679,-3.6769,-3.6765,-3.6776,-3.6783,-3.6786,-3.6785,-3.6645,-3.6763,-3.6762,-3.6761,-3.676,-3.676,-3.6662,-3.6688,-3.6697,-3.6721,-3.6729,-3.6741,-3.6765,-3.6762,-3.6784,-3.6805,-3.6794,-3.6824,-3.6832,-3.6853,-3.6859,-3.6882,-3.6864,-3.6878,-3.6882,-3.6886,-3.6892,-3.6782,-3.6885,-3.6884,-3.6884,-3.6884,-3.6884,0,-3.6771,-3.6774,-3.6797,-3.6816,-3.6835,-3.6813,-3.6826,-3.6843,-3.6871,-3.688,-3.6898,-3.6928,-3.695,-3.6948,-3.6968,-3.6987,-3.6978,-3.6993,-3.6992,-3.6993,-3.6907,-3.6896,-3.7001,-3.7001,-3.7001,-3.7001,-3.7001,-3.7001,-3.683,-3.6873,-3.6868,-3.6914,-3.6917,-3.6947,-3.6956,-3.6967,-3.6974,-3.7009,-3.7027,-3.7026,-3.703,-3.705,-3.707,-3.7068,-3.7077,-3.7096,-3.7091,-3.7011,-3.6999,-3.6988,-3.6978,-3.7098,-3.7098,-3.7176,-3.7177,-3.7177]}]]